Meadow Lake, CO

5:59 AM MDT on March 26, 2017 (GMT -0600)
Meadow Lake

Weather History for KFLY - November, 2012

Change the Weather History Date:

Sunday, November 18, 2012

  Actual Average (KCOS) Record (KCOS)
Temperature  
Mean Temperature 44 °F -  
Max Temperature 59 °F 48 °F 76 °F (2008)
Min Temperature 30 °F 23 °F -5 °F (1903)
Degree Days  
Heating Degree Days 20    
Moisture  
Dew Point 17 °F    
Average Humidity 32    
Maximum Humidity 61    
Minimum Humidity 16    
Precipitation  
Precipitation 0.00 in - - ()
Sea Level Pressure  
Sea Level Pressure 30.08 in    
Wind  
Wind Speed 12 mph (WNW)    
Max Wind Speed 21 mph    
Max Gust Speed 33 mph    
Visibility 10 miles    
Events      
Averages and records for this station are not official NWS values.
T = Trace of Precipitation, MM = Missing Value Source: NWS Daily Summary

Daily Weather History Graph

Daily Weather History Graph

Search for Another Location

Airport or City:

Trip Planner

Search our weather history database for the weather conditions in past years. The results will help you decide how hot, cold, wet, or windy it might be!

Date:

Astronomy

Nov. 18, 2012 Rise Set
Actual Time 6:44 AM MST 4:41 PM MST
Civil Twilight 6:16 AM MST 5:10 PM MST
Nautical Twilight 5:43 AM MST 5:43 PM MST
Astronomical Twilight 5:12 AM MST 6:14 PM MST
Moon 11:14 AM MST (11/18) 10:03 PM MST (11/18)
Length of Visible Light 10h 54m
Length of Day
9h 56m
Waxing Crescent, 31% of the Moon is Illuminated
Nov 18
Waxing Crescent
Nov 20
First Quarter
Nov 28
Full
Dec 6
Last Quarter
Dec 13
New

Hourly Weather History & Observations

Time (MST) Temp. Windchill Dew Point Humidity Pressure Visibility Wind Dir Wind Speed Gust Speed Precip Events Conditions
12:11 AM 30.7 °F 22.6 °F 18.7 °F 61% 30.08 in 10.0 mi NW 9.2 mph - N/A   Clear
12:31 AM 32.5 °F 24.8 °F 19.2 °F 58% 30.08 in 10.0 mi WNW 9.2 mph - N/A   Clear
12:51 AM 32.2 °F 24.4 °F 19.8 °F 60% 30.07 in 10.0 mi WNW 9.2 mph - N/A   Clear
1:11 AM 35.8 °F 28.8 °F 19.9 °F 53% 30.07 in 10.0 mi WNW 9.2 mph - N/A   Clear
1:31 AM 32.7 °F 25.7 °F 18.9 °F 57% 30.07 in - WNW 8.1 mph - N/A   Unknown
1:51 AM 35.6 °F 28.0 °F 19.4 °F 52% 30.06 in 10.0 mi NW 10.4 mph - N/A   Clear
2:11 AM 43.7 °F 37.3 °F 18.3 °F 36% 30.06 in 10.0 mi NW 12.7 mph 18.4 mph N/A   Clear
2:31 AM 44.2 °F 37.6 °F 17.6 °F 34% 30.06 in 10.0 mi NW 13.8 mph 18.4 mph N/A   Clear
2:51 AM 45.1 °F 39.9 °F 18.5 °F 35% 30.05 in 10.0 mi NNW 10.4 mph 19.6 mph N/A   Clear
3:11 AM 44.6 °F 38.8 °F 19.0 °F 36% 30.05 in 10.0 mi NNW 11.5 mph 18.4 mph N/A   Clear
3:31 AM 43.9 °F 36.8 °F 19.4 °F 38% 30.04 in 10.0 mi NW 15.0 mph 21.9 mph N/A   Clear
3:51 AM 42.6 °F 36.3 °F 19.6 °F 40% 30.04 in 10.0 mi NNW 11.5 mph - N/A   Clear
4:11 AM 43.3 °F 36.1 °F 19.4 °F 38% 30.03 in 10.0 mi NW 15.0 mph - N/A   Clear
4:31 AM 44.8 °F 37.4 °F 18.9 °F 36% 30.04 in 10.0 mi WNW 17.3 mph 25.3 mph N/A   Clear
4:51 AM 43.0 °F 37.2 °F 19.4 °F 39% 30.04 in 10.0 mi WNW 10.4 mph - N/A   Clear
5:11 AM 43.0 °F 35.1 °F 19.4 °F 39% 30.03 in 10.0 mi WNW 17.3 mph - N/A   Clear
5:31 AM 45.7 °F 38.6 °F 17.8 °F 33% 30.03 in 10.0 mi WNW 17.3 mph 23.0 mph N/A   Clear
5:51 AM 45.9 °F 39.1 °F 17.4 °F 32% 30.03 in 10.0 mi WNW 16.1 mph 20.7 mph N/A   Clear
6:11 AM 46.2 °F 39.0 °F 17.8 °F 32% 30.02 in 10.0 mi WNW 18.4 mph 23.0 mph N/A   Clear
6:31 AM 45.9 °F 38.5 °F 18.3 °F 33% 30.03 in 10.0 mi WNW 18.4 mph 25.3 mph N/A   Clear
6:51 AM 45.5 °F 38.6 °F 18.3 °F 34% 30.04 in 10.0 mi WNW 16.1 mph 20.7 mph N/A   Clear
7:11 AM 45.5 °F 38.3 °F 18.3 °F 34% 30.04 in 10.0 mi West 17.3 mph 26.5 mph N/A   Clear
7:31 AM 46.0 °F 39.3 °F 18.3 °F 33% 30.06 in 10.0 mi WNW 16.1 mph - N/A   Clear
7:51 AM 45.1 °F 38.8 °F 18.3 °F 34% 30.06 in 10.0 mi NW 13.8 mph - N/A   Clear
8:11 AM 46.4 °F 39.8 °F 18.9 °F 33% 30.06 in 10.0 mi NW 16.1 mph - N/A   Clear
8:31 AM 46.6 °F - 18.9 °F 33% 30.06 in 10.0 mi WNW 10.4 mph 19.6 mph N/A   Clear
8:51 AM 46.4 °F 39.8 °F 19.4 °F 34% 30.07 in 10.0 mi WNW 16.1 mph 23.0 mph N/A   Clear
9:11 AM 52.0 °F - 20.3 °F 29% 30.07 in 10.0 mi WNW 20.7 mph 33.4 mph N/A   Clear
9:31 AM 54.0 °F - 19.0 °F 25% 30.07 in 10.0 mi WNW 20.7 mph 28.8 mph N/A   Clear
9:51 AM 54.7 °F - 19.0 °F 25% 30.08 in 10.0 mi NW 16.1 mph 27.6 mph N/A   Clear
10:11 AM 55.9 °F - 18.0 °F 23% 30.08 in 10.0 mi NW 16.1 mph 25.3 mph N/A   Clear
10:31 AM 56.3 °F - 17.6 °F 22% 30.08 in 10.0 mi West 15.0 mph 31.1 mph N/A   Clear
10:51 AM 57.4 °F - 18.5 °F 22% 30.08 in 10.0 mi West 17.3 mph 24.2 mph N/A   Clear
11:11 AM 57.9 °F - 19.2 °F 22% 30.07 in 10.0 mi West 16.1 mph 23.0 mph N/A   Clear
11:31 AM 57.2 °F - 18.7 °F 22% 30.06 in 10.0 mi West 18.4 mph 26.5 mph N/A   Clear
11:51 AM 57.7 °F - 19.4 °F 23% 30.06 in 10.0 mi WNW 16.1 mph 25.3 mph N/A   Clear
12:11 PM 58.8 °F - 18.9 °F 21% 30.05 in 10.0 mi NW 18.4 mph 24.2 mph N/A   Clear
12:31 PM 59.4 °F - 18.0 °F 20% 30.04 in 10.0 mi WNW 16.1 mph 24.2 mph N/A   Clear
12:51 PM 58.8 °F - 17.1 °F 20% 30.04 in 10.0 mi WNW 18.4 mph 27.6 mph N/A   Clear
1:11 PM 59.4 °F - 16.5 °F 19% 30.04 in 10.0 mi West 15.0 mph 21.9 mph N/A   Clear
1:31 PM 59.2 °F - 15.4 °F 18% 30.03 in 10.0 mi West 16.1 mph 20.7 mph N/A   Clear
1:51 PM 59.0 °F - 14.7 °F 18% 30.03 in 10.0 mi West 15.0 mph 20.7 mph N/A   Clear
2:11 PM 59.9 °F - 13.6 °F 16% 30.03 in 10.0 mi West 10.4 mph 17.3 mph N/A   Clear
2:31 PM 59.9 °F - 13.8 °F 16% 30.04 in 10.0 mi NW 6.9 mph 17.3 mph N/A   Clear
2:51 PM 59.5 °F - 13.8 °F 17% 30.04 in 10.0 mi SSW 5.8 mph 16.1 mph N/A   Clear
3:11 PM 59.4 °F - 12.2 °F 16% 30.04 in 10.0 mi West 10.4 mph 18.4 mph N/A   Clear
3:31 PM 58.6 °F - 13.3 °F 17% 30.06 in 10.0 mi WNW 11.5 mph 18.4 mph N/A   Clear
3:51 PM 57.2 °F - 13.5 °F 18% 30.06 in 10.0 mi West 11.5 mph 17.3 mph N/A   Clear
4:11 PM 54.7 °F - 13.5 °F 20% 30.07 in 10.0 mi West 8.1 mph 17.3 mph N/A   Clear
4:31 PM 50.4 °F - 14.0 °F 23% 30.07 in 10.0 mi WSW 5.8 mph - N/A   Clear
4:51 PM 47.7 °F - 14.2 °F 26% 30.08 in 10.0 mi West 4.6 mph - N/A   Clear
5:11 PM 49.1 °F - 13.8 °F 24% 30.09 in 10.0 mi West 3.5 mph - N/A   Clear
5:31 PM 46.2 °F - 13.1 °F 26% 30.09 in 10.0 mi Calm Calm - N/A   Clear
5:51 PM 42.6 °F 37.2 °F 12.4 °F 29% 30.10 in 10.0 mi West 9.2 mph - N/A   Clear
6:11 PM 40.8 °F 34.1 °F 13.5 °F 33% 30.10 in 10.0 mi WNW 11.5 mph - N/A   Clear
6:31 PM 44.8 °F 41.0 °F 14.7 °F 30% 30.12 in 10.0 mi NW 6.9 mph - N/A   Clear
6:51 PM 45.1 °F 38.8 °F 17.4 °F 33% 30.12 in 10.0 mi North 13.8 mph - N/A   Clear
7:11 PM 45.0 °F 40.1 °F 16.7 °F 32% 30.12 in 10.0 mi North 9.2 mph - N/A   Clear
7:31 PM 40.3 °F 33.9 °F 14.4 °F 35% 30.13 in 10.0 mi North 10.4 mph - N/A   Clear
7:51 PM 44.2 °F 40.3 °F 18.7 °F 36% 30.13 in 10.0 mi North 6.9 mph - N/A   Clear
8:11 PM 42.6 °F 40.9 °F 16.5 °F 35% 30.13 in 10.0 mi NNW 3.5 mph - N/A   Clear
8:31 PM 44.6 °F 40.7 °F 18.5 °F 35% 30.14 in 10.0 mi North 6.9 mph - N/A   Clear
8:51 PM 45.7 °F 41.5 °F 16.9 °F 32% 30.14 in 10.0 mi West 8.1 mph - N/A   Clear
9:11 PM 42.1 °F - 16.0 °F 35% 30.15 in 10.0 mi Calm Calm - N/A   Clear
9:31 PM 40.6 °F - 15.4 °F 36% 30.15 in 10.0 mi Calm Calm - N/A   Clear
10:11 PM 40.5 °F 35.8 °F 14.7 °F 35% 30.15 in 10.0 mi WNW 6.9 mph - N/A   Clear
10:31 PM 40.6 °F 36.0 °F 14.9 °F 35% 30.15 in 10.0 mi NNE 6.9 mph - N/A   Clear
10:51 PM 41.4 °F 35.2 °F 15.6 °F 35% 30.15 in 10.0 mi North 10.4 mph - N/A   Clear
11:11 PM 39.4 °F 33.8 °F 15.4 °F 38% 30.15 in 10.0 mi NW 8.1 mph - N/A   Clear
11:31 PM 37.9 °F 31.5 °F 16.3 °F 42% 30.16 in 10.0 mi NW 9.2 mph - N/A   Clear
11:51 PM 37.9 °F 32.1 °F 16.0 °F 41% 30.16 in 10.0 mi NW 8.1 mph - N/A   Clear